TimeEST,TemperatureF,Dew PointF,Humidity,Sea Level PressureIn,VisibilityMPH,Wind Direction,Wind SpeedMPH,Gust SpeedMPH,PrecipitationIn,Events,Conditions,WindDirDegrees,DateUTC
12:15 AM,33.6,32.0,94,29.79,5.0,North,-9999.0,-,N/A,Snow,Light Snow,0,2012-12-27 05:15:00
12:35 AM,33.3,32.0,95,29.81,5.0,North,-9999.0,-,N/A,Snow,Light Snow,0,2012-12-27 05:35:00
12:55 AM,32.9,31.8,96,29.82,7.0,North,-9999.0,-,N/A,Snow,Light Snow,0,2012-12-27 05:55:00
1:15 AM,32.5,31.8,97,29.83,4.0,North,-9999.0,-,N/A,Snow,Light Snow,0,2012-12-27 06:15:00
1:35 AM,32.4,31.5,96,29.83,5.0,North,-9999.0,-,N/A,,Overcast,0,2012-12-27 06:35:00
1:55 AM,32.2,31.1,96,29.85,5.0,North,-9999.0,-,N/A,,Overcast,0,2012-12-27 06:55:00
2:15 AM,32.0,31.1,96,29.86,5.0,North,-9999.0,-,N/A,,Overcast,0,2012-12-27 07:15:00
2:35 AM,32.0,31.1,96,29.86,7.0,North,-9999.0,-,N/A,Snow,Light Snow,0,2012-12-27 07:35:00
2:55 AM,32.0,31.1,96,29.87,5.0,North,-9999.0,-,N/A,Snow,Light Snow,0,2012-12-27 07:55:00
3:15 AM,32.0,31.1,96,29.89,7.0,North,-9999.0,-,N/A,Snow,Light Snow,0,2012-12-27 08:15:00
3:35 AM,32.0,30.9,96,29.89,10.0,North,-9999.0,-,N/A,,Overcast,0,2012-12-27 08:35:00
3:55 AM,32.0,30.2,93,29.91,10.0,North,-9999.0,-,N/A,,Overcast,0,2012-12-27 08:55:00
4:15 AM,32.0,29.7,91,29.91,10.0,North,-9999.0,-,N/A,,Overcast,0,2012-12-27 09:15:00
4:35 AM,32.0,29.8,92,29.93,10.0,North,-9999.0,-,N/A,,Overcast,0,2012-12-27 09:35:00
4:55 AM,31.8,29.3,90,29.94,10.0,North,-9999.0,-,N/A,,Overcast,0,2012-12-27 09:55:00
5:15 AM,31.8,29.1,90,29.94,10.0,North,-9999.0,-,N/A,,Overcast,0,2012-12-27 10:15:00
5:35 AM,32.0,28.6,87,29.95,10.0,North,-9999.0,-,N/A,,Overcast,0,2012-12-27 10:35:00
5:55 AM,32.0,28.8,88,29.96,10.0,North,-9999.0,-,N/A,,Overcast,0,2012-12-27 10:55:00
6:15 AM,32.0,28.8,88,29.98,10.0,North,-9999.0,-,N/A,,Overcast,0,2012-12-27 11:15:00
6:35 AM,32.0,28.8,88,29.99,10.0,North,-9999.0,-,N/A,,Overcast,0,2012-12-27 11:35:00
6:55 AM,31.6,28.4,88,30.01,10.0,North,-9999.0,-,N/A,,Overcast,0,2012-12-27 11:55:00
7:35 AM,31.6,28.2,87,30.02,10.0,North,-9999.0,-,N/A,,Overcast,0,2012-12-27 12:35:00
7:55 AM,31.5,28.0,87,30.02,10.0,North,-9999.0,-,N/A,,Overcast,0,2012-12-27 12:55:00
8:15 AM,31.1,27.3,86,30.03,10.0,North,-9999.0,-,N/A,,Overcast,0,2012-12-27 13:15:00
8:35 AM,31.1,27.5,87,30.04,10.0,North,-9999.0,-,N/A,,Overcast,0,2012-12-27 13:35:00
8:55 AM,31.1,28.2,89,30.04,10.0,North,-9999.0,-,N/A,,Overcast,0,2012-12-27 13:55:00
9:15 AM,31.1,28.2,89,30.06,10.0,North,-9999.0,-,N/A,,Overcast,0,2012-12-27 14:15:00
9:35 AM,30.9,27.9,88,30.06,7.0,North,-9999.0,-,N/A,,Overcast,0,2012-12-27 14:35:00
9:55 AM,30.9,28.2,90,30.08,7.0,North,-9999.0,-,N/A,,Overcast,0,2012-12-27 14:55:00
10:15 AM,30.9,28.4,90,30.08,7.0,North,-9999.0,-,N/A,,Overcast,0,2012-12-27 15:15:00
10:35 AM,30.9,28.4,90,30.08,7.0,North,-9999.0,-,N/A,,Overcast,0,2012-12-27 15:35:00
10:55 AM,30.7,28.2,90,30.08,7.0,North,-9999.0,-,N/A,,Overcast,0,2012-12-27 15:55:00
11:15 AM,30.7,28.4,91,30.08,7.0,North,-9999.0,-,N/A,,Overcast,0,2012-12-27 16:15:00
11:35 AM,30.7,28.4,91,30.08,5.0,North,-9999.0,-,N/A,,Overcast,0,2012-12-27 16:35:00
11:55 AM,30.7,27.9,89,30.08,7.0,North,-9999.0,-,N/A,,Overcast,0,2012-12-27 16:55:00
12:15 PM,30.9,27.7,88,30.08,10.0,North,-9999.0,-,N/A,,Overcast,0,2012-12-27 17:15:00
12:35 PM,30.4,27.3,88,30.08,7.0,North,-9999.0,-,N/A,,Overcast,0,2012-12-27 17:35:00
12:55 PM,30.6,27.5,88,30.07,10.0,North,-9999.0,-,N/A,,Overcast,0,2012-12-27 17:55:00
1:15 PM,30.2,27.1,88,30.07,10.0,North,-9999.0,-,N/A,,Overcast,0,2012-12-27 18:15:00
1:35 PM,30.2,27.3,89,30.06,7.0,North,-9999.0,-,N/A,,Overcast,0,2012-12-27 18:35:00
1:55 PM,30.6,27.3,88,30.06,7.0,North,-9999.0,-,N/A,,Overcast,0,2012-12-27 18:55:00
2:15 PM,30.2,27.0,88,30.06,10.0,North,-9999.0,-,N/A,,Overcast,0,2012-12-27 19:15:00
2:35 PM,30.2,27.0,88,30.08,10.0,North,-9999.0,-,N/A,,Overcast,0,2012-12-27 19:35:00
2:55 PM,30.2,26.4,86,30.08,10.0,North,-9999.0,-,N/A,,Overcast,0,2012-12-27 19:55:00
3:15 PM,30.4,26.2,85,30.09,10.0,North,-9999.0,-,N/A,,Overcast,0,2012-12-27 20:15:00
3:35 PM,30.2,26.4,86,30.09,7.0,North,-9999.0,-,N/A,,Overcast,0,2012-12-27 20:35:00
3:55 PM,30.2,26.2,85,30.10,7.0,North,-9999.0,-,N/A,,Overcast,0,2012-12-27 20:55:00
4:15 PM,30.2,26.4,86,30.13,7.0,North,-9999.0,-,N/A,,Overcast,0,2012-12-27 21:15:00
4:35 PM,30.2,26.6,86,30.12,5.0,North,-9999.0,-,N/A,,Overcast,0,2012-12-27 21:35:00
4:55 PM,30.2,27.0,88,30.12,7.0,North,-9999.0,-,N/A,,Overcast,0,2012-12-27 21:55:00
5:15 PM,30.0,27.0,88,30.12,10.0,North,-9999.0,-,N/A,,Overcast,0,2012-12-27 22:15:00
5:35 PM,30.0,27.1,89,30.13,10.0,North,-9999.0,-,N/A,,Overcast,0,2012-12-27 22:35:00
5:55 PM,30.0,27.1,89,30.15,10.0,North,-9999.0,-,N/A,,Overcast,0,2012-12-27 22:55:00
6:15 PM,30.2,27.3,89,30.15,10.0,North,-9999.0,-,N/A,,Overcast,0,2012-12-27 23:15:00
6:35 PM,30.2,27.5,90,30.15,10.0,North,-9999.0,-,N/A,,Overcast,0,2012-12-27 23:35:00
6:55 PM,30.2,27.5,90,30.15,10.0,North,-9999.0,-,N/A,,Overcast,0,2012-12-27 23:55:00
7:35 PM,30.2,27.0,88,30.15,10.0,North,-9999.0,-,N/A,,Overcast,0,2012-12-28 00:35:00
7:55 PM,30.2,26.6,86,30.15,10.0,North,-9999.0,-,N/A,,Overcast,0,2012-12-28 00:55:00
8:55 PM,30.2,27.0,88,30.15,10.0,North,-9999.0,-,N/A,,Overcast,0,2012-12-28 01:55:00
9:15 PM,30.2,26.4,86,30.15,10.0,North,-9999.0,-,N/A,,Overcast,0,2012-12-28 02:15:00
9:35 PM,30.2,26.6,86,30.16,10.0,North,-9999.0,-,N/A,,Overcast,0,2012-12-28 02:35:00
9:55 PM,30.2,26.4,86,30.16,10.0,North,-9999.0,-,N/A,,Overcast,0,2012-12-28 02:55:00
10:15 PM,30.2,26.8,87,30.16,10.0,North,-9999.0,-,N/A,,Overcast,0,2012-12-28 03:15:00
10:35 PM,30.2,26.4,86,30.16,10.0,North,-9999.0,-,N/A,,Overcast,0,2012-12-28 03:35:00
10:55 PM,30.2,26.4,86,30.16,10.0,North,-9999.0,-,N/A,,Overcast,0,2012-12-28 03:55:00
11:15 PM,30.2,26.6,86,30.16,10.0,North,-9999.0,-,N/A,,Overcast,0,2012-12-28 04:15:00
11:35 PM,30.2,26.6,86,30.15,10.0,North,-9999.0,-,N/A,,Overcast,0,2012-12-28 04:35:00
11:55 PM,30.2,26.6,86,30.15,10.0,North,-9999.0,-,N/A,,Overcast,0,2012-12-28 04:55:00